Location: Olsztyn
(53.7767°N, 20.4765°E)
Time: 07:50:30
(UTC+01:00)

Transit 4A - Pass Details

Date: 04 October 2022
Orbit: 871 x 972 km, 66.8° (Epoch: 06 December)

Event Time Altitude Azimuth Distance (km) Brightness Sun altitude
Rises 05:53:27 0° 318° (NW) 3,518 10.6 -8.4°
Reaches altitude 10° 05:56:01 10° 321° (NW) 2,563 9.9 -8.1°
Maximum altitude 06:01:53 63° 43° (NE) 978 8.3 -7.2°
Drops below altitude 10° 06:07:39 10° 125° (SE) 2,519 11.1 -6.3°
Sets 06:10:09 0° 128° (SE) 3,454 11.8 -6.0°
